When you browse on this site, cookies collect data to enhance your experience and personalize the content and advertising you see.
Visit our Privacy Policy to learn more. By continuing to use the site, you agree to this use of cookies and data.

Stündliche Wetter Çayeli

Heute, 4 Juli, Samstag

Zeit Temperatur Niederschläge Wind Luftdruck Luftfeuchtigkeit
00:00 +27°C° 0 mm 1 m/S 757 mmHg 70%
01:00 +27°C° 0 mm 1 m/S 756 mmHg 70%
02:00 +27°C° 0 mm 1 m/S 756 mmHg 70%
03:00 +26°C° 0 mm 1 m/S 756 mmHg 71%
04:00 +26°C° 0.1 mm 1 m/S 756 mmHg 71%
05:00 +27°C° 0.1 mm 1 m/S 756 mmHg 71%
06:00 +27°C° 0.1 mm 1 m/S 756 mmHg 72%
07:00 +28°C° 0.1 mm 1 m/S 756 mmHg 69%
08:00 +30°C° 0.1 mm 1 m/S 756 mmHg 66%
09:00 +32°C° 0 mm 1 m/S 756 mmHg 62%
10:00 +32°C° 0.2 mm 1 m/S 756 mmHg 61%
11:00 +34°C° 0.2 mm 2 m/S 755 mmHg 61%
12:00 +34°C° 0.2 mm 2 m/S 755 mmHg 61%
13:00 +34°C° 0.3 mm 2 m/S 755 mmHg 64%
14:00 +34°C° 0.3 mm 2 m/S 755 mmHg 66%
15:00 +32°C° 0.3 mm 2 m/S 755 mmHg 69%
16:00 +31°C° 0.2 mm 2 m/S 755 mmHg 73%
17:00 +31°C° 0.2 mm 2 m/S 755 mmHg 77%
18:00 +30°C° 0.2 mm 2 m/S 756 mmHg 81%
19:00 +29°C° 0.1 mm 1 m/S 756 mmHg 82%
20:00 +28°C° 0.1 mm 1 m/S 756 mmHg 82%
21:00 +27°C° 0.1 mm 1 m/S 757 mmHg 82%
22:00 +26°C° 0 mm 1 m/S 756 mmHg 82%
23:00 +26°C° 0 mm 1 m/S 756 mmHg 82%

Morgen, 5 Juli, Sonntag

Zeit Temperatur Niederschläge Wind Luftdruck Luftfeuchtigkeit
00:00 +26°C° 0 mm 1 m/S 756 mmHg 82%
01:00 +26°C° 0 mm 1 m/S 756 mmHg 81%
02:00 +25°C° 0 mm 1 m/S 756 mmHg 80%
03:00 +25°C° 0 mm 1 m/S 755 mmHg 78%
04:00 +25°C° 0 mm 1 m/S 755 mmHg 78%
05:00 +26°C° 0 mm 1 m/S 755 mmHg 78%
06:00 +26°C° 0 mm 1 m/S 755 mmHg 77%
07:00 +27°C° 0 mm 1 m/S 755 mmHg 75%
08:00 +29°C° 0 mm 1 m/S 755 mmHg 73%
09:00 +30°C° 0 mm 2 m/S 754 mmHg 70%
10:00 +30°C° 0.1 mm 2 m/S 754 mmHg 72%
11:00 +30°C° 0.1 mm 1 m/S 754 mmHg 74%
12:00 +30°C° 0.1 mm 1 m/S 753 mmHg 76%
13:00 +30°C° 0.1 mm 2 m/S 753 mmHg 76%
14:00 +30°C° 0.1 mm 2 m/S 753 mmHg 76%
15:00 +31°C° 0.1 mm 2 m/S 753 mmHg 77%
16:00 +30°C° 0.2 mm 2 m/S 753 mmHg 79%
17:00 +29°C° 0.2 mm 1 m/S 753 mmHg 82%
18:00 +29°C° 0.2 mm 1 m/S 753 mmHg 85%
19:00 +28°C° 0.1 mm 1 m/S 753 mmHg 87%
20:00 +28°C° 0.1 mm 1 m/S 754 mmHg 89%
21:00 +27°C° 0.1 mm 1 m/S 754 mmHg 91%
22:00 +27°C° 0.1 mm 1 m/S 754 mmHg 91%
23:00 +26°C° 0.1 mm 1 m/S 754 mmHg 90%

übermorgen, 6 Juli, Montag

Zeit Temperatur Niederschläge Wind Luftdruck Luftfeuchtigkeit
00:00 +26°C° 0.1 mm 1 m/S 754 mmHg 90%
01:00 +26°C° 0 mm 1 m/S 754 mmHg 89%
02:00 +26°C° 0 mm 1 m/S 754 mmHg 88%
03:00 +26°C° 0 mm 1 m/S 754 mmHg 88%
04:00 +26°C° 0 mm 1 m/S 754 mmHg 87%
05:00 +26°C° 0 mm 1 m/S 754 mmHg 85%
06:00 +27°C° 0 mm 1 m/S 753 mmHg 84%
07:00 +28°C° 0.1 mm 1 m/S 753 mmHg 80%
08:00 +29°C° 0.1 mm 1 m/S 753 mmHg 76%
09:00 +31°C° 0.1 mm 1 m/S 753 mmHg 72%
10:00 +31°C° 0.2 mm 1 m/S 752 mmHg 72%
11:00 +31°C° 0.2 mm 2 m/S 752 mmHg 72%
12:00 +31°C° 0.2 mm 2 m/S 751 mmHg 72%
13:00 +31°C° 0.2 mm 1 m/S 751 mmHg 74%
14:00 +31°C° 0.2 mm 1 m/S 751 mmHg 75%
15:00 +31°C° 0.2 mm 1 m/S 751 mmHg 76%
16:00 +31°C° 0.3 mm 1 m/S 751 mmHg 78%
17:00 +31°C° 0.3 mm 1 m/S 751 mmHg 79%
18:00 +30°C° 0.3 mm 1 m/S 751 mmHg 81%
19:00 +29°C° 0.1 mm 1 m/S 751 mmHg 83%
20:00 +28°C° 0.1 mm 1 m/S 752 mmHg 85%
21:00 +28°C° 0.1 mm 1 m/S 752 mmHg 88%
22:00 +28°C° 0 mm 1 m/S 752 mmHg 84%
23:00 +28°C° 0 mm 1 m/S 752 mmHg 81%

7 Juli, Dienstag

Zeit Temperatur Niederschläge Wind Luftdruck Luftfeuchtigkeit
00:00 +28°C° 0 mm 1 m/S 752 mmHg 77%
01:00 +27°C° 0 mm 1 m/S 751 mmHg 77%
02:00 +27°C° 0 mm 1 m/S 751 mmHg 77%
03:00 +27°C° 0 mm 1 m/S 751 mmHg 77%
04:00 +28°C° 0 mm 1 m/S 751 mmHg 76%
05:00 +28°C° 0 mm 1 m/S 751 mmHg 75%
06:00 +28°C° 0 mm 1 m/S 751 mmHg 75%
07:00 +30°C° 0 mm 1 m/S 751 mmHg 71%
08:00 +31°C° 0 mm 1 m/S 751 mmHg 68%
09:00 +32°C° 0 mm 1 m/S 751 mmHg 65%
10:00 +33°C° 0 mm 1 m/S 751 mmHg 64%
11:00 +33°C° 0 mm 1 m/S 751 mmHg 64%
12:00 +34°C° 0 mm 1 m/S 750 mmHg 63%
13:00 +34°C° 0.1 mm 1 m/S 750 mmHg 62%
14:00 +34°C° 0.1 mm 1 m/S 750 mmHg 61%
15:00 +34°C° 0.1 mm 1 m/S 750 mmHg 60%
16:00 +34°C° 0.1 mm 2 m/S 750 mmHg 65%
17:00 +32°C° 0.1 mm 2 m/S 750 mmHg 70%
18:00 +31°C° 0.1 mm 2 m/S 750 mmHg 76%
19:00 +30°C° 0.1 mm 2 m/S 751 mmHg 75%
20:00 +30°C° 0.1 mm 2 m/S 751 mmHg 75%
21:00 +29°C° 0.1 mm 2 m/S 751 mmHg 75%
22:00 +29°C° 0 mm 2 m/S 751 mmHg 70%
23:00 +29°C° 0 mm 2 m/S 751 mmHg 66%

8 Juli, Mittwoch

Zeit Temperatur Niederschläge Wind Luftdruck Luftfeuchtigkeit
00:00 +29°C° 0 mm 2 m/S 751 mmHg 62%
01:00 +29°C° 0 mm 2 m/S 751 mmHg 62%
02:00 +29°C° 0 mm 2 m/S 751 mmHg 62%
03:00 +28°C° 0 mm 1 m/S 751 mmHg 62%
04:00 +28°C° 0 mm 1 m/S 752 mmHg 64%
05:00 +29°C° 0 mm 1 m/S 752 mmHg 65%
06:00 +29°C° 0 mm 1 m/S 752 mmHg 67%
07:00 +30°C° 0 mm 1 m/S 752 mmHg 66%
08:00 +31°C° 0 mm 2 m/S 752 mmHg 65%
09:00 +32°C° 0 mm 2 m/S 752 mmHg 64%
10:00 +33°C° 0.2 mm 3 m/S 752 mmHg 70%
11:00 +31°C° 0.2 mm 3 m/S 752 mmHg 76%
12:00 +31°C° 0.2 mm 3 m/S 752 mmHg 82%
13:00 +31°C° 0.4 mm 3 m/S 752 mmHg 82%
14:00 +30°C° 0.4 mm 3 m/S 752 mmHg 83%
15:00 +30°C° 0.4 mm 3 m/S 753 mmHg 83%
16:00 +30°C° 0.6 mm 3 m/S 753 mmHg 85%
17:00 +29°C° 0.6 mm 3 m/S 753 mmHg 87%
18:00 +29°C° 0.6 mm 3 m/S 754 mmHg 89%
19:00 +28°C° 0.7 mm 3 m/S 754 mmHg 90%
20:00 +27°C° 0.7 mm 3 m/S 755 mmHg 91%
21:00 +27°C° 0.7 mm 3 m/S 756 mmHg 91%
22:00 +26°C° 0.1 mm 3 m/S 756 mmHg 89%
23:00 +26°C° 0.1 mm 3 m/S 756 mmHg 86%

9 Juli, Donnerstag

Zeit Temperatur Niederschläge Wind Luftdruck Luftfeuchtigkeit
00:00 +25°C° 0.1 mm 3 m/S 757 mmHg 84%
01:00 +25°C° 0.6 mm 3 m/S 757 mmHg 84%
02:00 +25°C° 0.6 mm 4 m/S 757 mmHg 85%
03:00 +23°C° 0.6 mm 4 m/S 757 mmHg 85%
04:00 +25°C° 1.4 mm 4 m/S 757 mmHg 85%
05:00 +25°C° 1.4 mm 4 m/S 757 mmHg 85%
06:00 +25°C° 1.4 mm 4 m/S 757 mmHg 85%
07:00 +26°C° 1.3 mm 4 m/S 757 mmHg 87%
08:00 +26°C° 1.3 mm 5 m/S 757 mmHg 88%
09:00 +26°C° 1.3 mm 6 m/S 757 mmHg 90%
10:00 +26°C° 1.6 mm 6 m/S 757 mmHg 90%
11:00 +26°C° 1.6 mm 6 m/S 757 mmHg 91%
12:00 +26°C° 1.6 mm 7 m/S 757 mmHg 92%
13:00 +24°C° 1.9 mm 6 m/S 757 mmHg 93%
14:00 +24°C° 1.9 mm 6 m/S 757 mmHg 94%
15:00 +24°C° 1.9 mm 6 m/S 757 mmHg 95%
16:00 +23°C° 1.8 mm 5 m/S 758 mmHg 95%
17:00 +23°C° 1.8 mm 4 m/S 758 mmHg 96%
18:00 +23°C° 1.8 mm 4 m/S 758 mmHg 96%
19:00 +24°C° 0.8 mm 3 m/S 758 mmHg 95%
20:00 +24°C° 0.8 mm 3 m/S 759 mmHg 95%
21:00 +24°C° 0.8 mm 3 m/S 759 mmHg 95%
22:00 +24°C° 0.5 mm 3 m/S 759 mmHg 94%
23:00 +24°C° 0.5 mm 3 m/S 759 mmHg 94%
Mehr zeigen